Location: Poughquag
(41.6090°N, 73.6820°W)
Time: 12:54:08
(UTC-04:00)

Explorer 11/Cluster Stage 4 - Pass Details

Date: 06 June 2020
Orbit: 467 x 1259 km, 28.8° (Epoch: 05 July)

Event Time Altitude Azimuth Distance (km) Brightness Sun altitude
Rises 04:05:06 0° 215° (SW) 2,822 - -11.9°
Exits shadow 04:08:19 10° 189° (S) 2,083 8.3 -11.5°
Reaches altitude 10° 04:08:23 10° 188° (S) 2,073 8.3 -11.5°
Maximum altitude 04:10:43 13° 159° (SSE) 1,961 8.4 -11.1°
Drops below altitude 10° 04:13:17 10° 131° (SE) 2,318 9.1 -10.8°
Sets 04:17:23 0° 106° (ESE) 3,462 10.3 -10.2°
